This demonstration page uses our WeatherBlox Daily Observations layout. Learn more.

Left ArrowRight Arrow

Hourly Observations for May 16, 2015

Temp ( °F °C ) Dew Point ( °F °C ) Humidity (%) Winds ( mph kmh ) Pressure ( in mb ) Visibility ( mi km ) Precip ( " mm )
12:53 am 00:53 Mostly Cloudy 70 21.1 61 16.1 73 73 SSE 17 28 29.64 1004 10 16 0.00 0.03
1:53 am 01:53 Clear 68 20 62 16.7 81 81 SE 14 22 29.63 1003 10 16 0.00 0.00
2:53 am 02:53 Clear 68 20 64 17.8 87 87 SSE 13 20 29.62 1003 9 14 0.00 0.00
3:53 am 03:53 Clear 68 20 64 17.8 87 87 SE 16 26 29.60 1003 9 14 0.00 0.00
4:53 am 04:53 Clear 68 20 64 17.8 87 87 SE 12 19 29.61 1003 10 16 0.00 0.00
5:53 am 05:53 Clear 67 19.4 64 17.8 91 91 SE 12 19 29.61 1003 8 13 0.00 0.00
6:53 am 06:53 Clear 66 18.9 63 17.2 90 90 SE 10 17 29.63 1003 7 11 0.00 0.00
7:53 am 07:53 Sunny 67 19.4 63 17.2 87 87 SE 8 13 29.66 1004 7 11 0.00 0.00
8:53 am 08:53 undefined 70 21.1 62 16.7 76 76 SSE 7 11 29.66 1005 10 16 0.00 0.00
9:53 am 09:53 Sunny 74 23.3 60 15.6 62 62 SW 9 15 29.68 1005 10 16 0.00 0.00
10:53 am 10:53 Sunny 78 25.6 56 13.3 47 47 SW 8 13 29.66 1005 10 16 0.00 0.00
11:53 am 11:53 Sunny 81 27.2 51 10.6 35 35 WSW 8 13 29.66 1005 10 16 0.00 0.00
12:53 pm 12:53 Sunny 82 27.8 49 9.4 32 32 W 12 19 29.66 1005 10 16 0.00 0.00
1:53 pm 13:53 Sunny 84 28.9 47 8.3 27 27 W 12 19 29.66 1004 10 16 0.00 0.00
2:53 pm 14:53 Sunny 85 29.4 45 7.2 25 25 WNW 18 30 29.65 1004 10 16 0.00 0.00
3:53 pm 15:53 Mostly Sunny 86 30 42 5.6 21 21 NNW 14 22 29.64 1004 10 16 0.00 0.00
4:53 pm 16:53 Sunny 87 30.6 40 4.4 19 19 W 24 39 29.61 1003 10 16 0.00 0.00
5:53 pm 17:53 Sunny 85 29.4 32 0 15 15 WNW 25 41 29.61 1003 10 16 0.00 0.00
6:53 pm 18:53 Sunny 83 28.3 28 -2.2 13 13 W 29 46 29.62 1003 10 16 0.00 0.00
7:53 pm 19:53 Sunny 81 27.2 25 -3.9 13 13 WNW 21 33 29.63 1004 10 16 0.00 0.00
8:53 pm 20:53 Clear 78 25.6 21 -6.1 12 12 WNW 20 31 29.66 1004 10 16 0.00 0.00
9:53 pm 21:53 Clear 74 23.3 24 -4.4 15 15 WNW 15 24 29.67 1005 10 16 0.00 0.00
10:53 pm 22:53 Clear 71 21.7 26 -3.3 19 19 WNW 15 24 29.70 1006 10 16 0.00 0.00
11:53 pm 23:53 Clear 72 22.2 26 -3.3 18 18 NW 15 24 29.74 1007 10 16 0.00 0.00

Powered by AerisWeather